sat.trackr.live / text

‹ back to catalog

STARLINK-34295

NORAD 64455 · 2025-130T

PAYLOAD ACTIVE UNKNOWN

§ Identity

Operator
Country
US
Launch date
2025-06-18
Launch site
AFETR
Launch vehicle
Mass (kg)
RCS (m²)

Purposes: comms

External: N2YO · Heavens-Above · Gunter

§ Orbital elements

Epoch: 2026-05-25T02:50:44.685600Z

Period
93.85 min
Inclination
53.1597°
Eccentricity
0.0001149
Mean motion
15.34397636 rev/d
Perigee alt
461.9 km
Apogee alt
463.5 km
Semi-major
6,840.8 km
B*
7.9595e-4
RAAN
92.8977°
Arg perigee
78.0255°
Mean anomaly
282.0876°
Rev number
5,241

§ Raw data

STARLINK-342951 64455U 25130T   26145.11857275  .00026609  00000+0  79595-3 0  99992 64455  53.1597  92.8977 0001149  78.0255 282.0876 15.34397636 52412

JSON: /api/v1/satellites/64455 · /tle

For live sub-satellite position, see the globe view (requires WebGL).

§ Visibility from observer

Set your observer location to see the next 7 days of passes ≥ 10°. The values pass through the URL so the page stays shareable.

No JS? Fill the form by hand. The geolocation button needs JavaScript.